Newark, NJ

1:50 PM EDT on May 26, 2017 (GMT -0400)
Newark International

Weather History for KEWR - October, 2013

Change the Weather History Date:

Monday, October 7, 2013

  Actual Average Record
Temperature  
Mean Temperature 70 °F 60 °F  
Max Temperature 80 °F 68 °F 88 °F (1944)
Min Temperature 59 °F 51 °F 38 °F (1954)
Degree Days  
Heating Degree Days 0 6  
Month to date heating degree days 0 37  
Since 1 July heating degree days 47 82  
Cooling Degree Days 5 1  
Month to date cooling degree days 43 8  
Year to date cooling degree days 1333 1182  
Growing Degree Days 20 (Base 50)    
Moisture  
Dew Point 65 °F    
Average Humidity 84    
Maximum Humidity 97    
Minimum Humidity 71    
Precipitation  
Precipitation 0.30 in 0.12 in 2.69 in (1972)
Month to date precipitation 0.35 0.83  
Year to date precipitation 35.19 36.02  
Snow  
Snow 0.00 in 0.00 in 0.00 in (2002)
Month to date snowfall 0.0 0.0  
Since 1 July snowfall 0.0 0.0  
Snow Depth 0.00 in    
Sea Level Pressure  
Sea Level Pressure 29.89 in    
Wind  
Wind Speed 9 mph (South)    
Max Wind Speed 31 mph    
Max Gust Speed 44 mph    
Visibility 7 miles    
Events Rain    
T = Trace of Precipitation, MM = Missing Value Source: NWS Daily Summary

Daily Weather History Graph

Daily Weather History Graph

Search for Another Location

Airport or City:

Trip Planner

Search our weather history database for the weather conditions in past years. The results will help you decide how hot, cold, wet, or windy it might be!

Date:

Astronomy

Oct. 07, 2013 Rise Set
Actual Time 6:59 AM EDT 6:28 PM EDT
Civil Twilight 6:32 AM EDT 6:55 PM EDT
Nautical Twilight 6:00 AM EDT 7:27 PM EDT
Astronomical Twilight 5:28 AM EDT 7:59 PM EDT
Moon 9:47 AM EDT (10/7) 8:10 PM EDT (10/7)
Length of Visible Light 12h 23m
Length of Day
11h 29m
Waxing Crescent, 8% of the Moon is Illuminated
Oct 7
Waxing Crescent
Oct 11
First Quarter
Oct 18
Full
Oct 26
Last Quarter
Nov 3
New

Hourly Weather History & Observations

Time (EDT) Temp. Heat Index Dew Point Humidity Pressure Visibility Wind Dir Wind Speed Gust Speed Precip Events Conditions
12:08 AM 69.8 °F - 66.2 °F 88% 30.03 in 5.0 mi ESE 5.8 mph - N/A   Mostly Cloudy
12:44 AM 69.8 °F - 66.2 °F 88% 30.02 in 6.0 mi ESE 5.8 mph - N/A   Mostly Cloudy
12:51 AM 69.1 °F - 66.9 °F 93% 30.02 in 6.0 mi ESE 4.6 mph - N/A   Mostly Cloudy
1:51 AM 69.1 °F - 66.9 °F 93% 30.01 in 6.0 mi SE 3.5 mph - N/A   Scattered Clouds
2:51 AM 68.0 °F - 66.0 °F 93% 29.99 in 7.0 mi Calm Calm - N/A   Mostly Cloudy
3:51 AM 69.1 °F - 66.9 °F 93% 29.97 in 7.0 mi Calm Calm - N/A   Mostly Cloudy
4:51 AM 69.1 °F - 66.9 °F 93% 29.96 in 7.0 mi SE 4.6 mph - N/A   Scattered Clouds
5:51 AM 69.1 °F - 66.9 °F 93% 29.96 in 7.0 mi South 4.6 mph - N/A   Mostly Cloudy
6:15 AM 69.8 °F - 66.2 °F 88% 29.95 in 7.0 mi Variable 3.5 mph - N/A   Mostly Cloudy
6:51 AM 70.0 °F - 68.0 °F 93% 29.94 in 7.0 mi SSE 5.8 mph - N/A   Mostly Cloudy
7:51 AM 71.1 °F - 68.0 °F 90% 29.92 in 7.0 mi SSE 8.1 mph 16.1 mph N/A   Overcast
8:51 AM 72.0 °F - 68.0 °F 87% 29.91 in 7.0 mi SE 10.4 mph 16.1 mph N/A   Mostly Cloudy
9:47 AM 73.4 °F - 68.0 °F 83% 29.89 in 9.0 mi SSE 8.1 mph 17.3 mph N/A   Overcast
9:51 AM 73.0 °F - 68.0 °F 84% 29.89 in 9.0 mi SSE 11.5 mph 19.6 mph N/A   Overcast
10:15 AM 73.4 °F - 68.0 °F 83% 29.88 in 9.0 mi SSE 12.7 mph 20.7 mph N/A   Overcast
10:47 AM 73.4 °F - 68.0 °F 83% 29.87 in 9.0 mi Variable 6.9 mph - 0.00 in Rain Light Rain
10:51 AM 73.9 °F - 68.0 °F 82% 29.87 in 9.0 mi SE 10.4 mph 17.3 mph 0.00 in Rain Light Rain
11:16 AM 73.4 °F - 68.0 °F 83% 29.85 in 2.0 mi South 11.5 mph - 0.01 in Rain Rain
11:20 AM 73.4 °F - 69.8 °F 88% 29.85 in 5.0 mi South 12.7 mph 19.6 mph 0.02 in Rain Light Rain
11:51 AM 73.9 °F - 70.0 °F 87% 29.85 in 10.0 mi South 13.8 mph 19.6 mph 0.02 in Rain Light Rain
12:20 PM 73.4 °F - 69.8 °F 88% 29.83 in 1.8 mi South 11.5 mph 20.7 mph 0.00 in Rain Light Rain
12:28 PM 73.4 °F - 69.8 °F 88% 29.83 in 2.0 mi South 12.7 mph - 0.03 in Rain Light Rain
12:42 PM 73.4 °F - 71.6 °F 94% 29.82 in 5.0 mi South 12.7 mph 20.7 mph 0.04 in Rain Light Rain
12:51 PM 73.0 °F - 72.0 °F 96% 29.81 in 8.0 mi SSE 11.5 mph - 0.04 in Rain Light Rain
1:04 PM 75.2 °F - 71.6 °F 89% 29.81 in 10.0 mi South 12.7 mph 18.4 mph N/A   Overcast
1:51 PM 78.1 °F - 69.1 °F 74% 29.78 in 10.0 mi South 18.4 mph 27.6 mph N/A   Overcast
1:58 PM 78.8 °F - 69.8 °F 74% 29.77 in 10.0 mi South 20.7 mph 26.5 mph N/A   Mostly Cloudy
2:51 PM 79.0 °F - 68.0 °F 69% 29.76 in 10.0 mi South 25.3 mph 39.1 mph N/A   Mostly Cloudy
3:14 PM 80.6 °F 83.2 °F 68.0 °F 65% 29.79 in 10.0 mi SSW 23.0 mph 34.5 mph N/A   Mostly Cloudy
3:24 PM 71.6 °F - 62.6 °F 73% 29.80 in 8.0 mi West 26.5 mph 40.3 mph 0.00 in Rain Light Rain
3:39 PM 68.0 °F - 62.6 °F 83% 29.82 in 2.0 mi SW 18.4 mph 34.5 mph 0.00 in Rain Rain
3:51 PM 66.0 °F - 64.0 °F 93% 29.82 in 3.0 mi SW 12.7 mph 23.0 mph 0.06 in Rain Light Rain
4:07 PM 66.2 °F - 64.4 °F 94% 29.82 in 1.5 mi SW 13.8 mph - 0.01 in Rain Heavy Rain
4:29 PM 66.2 °F - 64.4 °F 94% 29.83 in 5.0 mi SSW 10.4 mph - 0.13 in Rain Rain
4:51 PM 66.9 °F - 64.0 °F 90% 29.83 in 9.0 mi South 8.1 mph - 0.14 in Rain Light Rain
5:28 PM 66.2 °F - 64.4 °F 94% 29.85 in 9.0 mi SSW 15.0 mph 20.7 mph 0.01 in Rain Light Rain
5:38 PM 66.2 °F - 64.4 °F 94% 29.87 in 6.0 mi SW 19.6 mph 26.5 mph 0.01 in Rain Light Rain
5:51 PM 64.0 °F - 60.1 °F 87% 29.88 in 5.0 mi West 19.6 mph 31.1 mph 0.03 in Rain Light Rain
6:07 PM 62.6 °F - 59.0 °F 88% 29.88 in 10.0 mi West 15.0 mph - 0.01 in Rain Light Rain
6:51 PM 62.1 °F - 57.9 °F 86% 29.90 in 10.0 mi West 8.1 mph - 0.01 in   Mostly Cloudy
7:51 PM 62.1 °F - 57.0 °F 84% 29.92 in 10.0 mi WSW 5.8 mph - N/A   Overcast
8:51 PM 62.1 °F - 55.9 °F 80% 29.94 in 10.0 mi WSW 5.8 mph - N/A   Overcast
9:51 PM 61.0 °F - 55.0 °F 81% 29.94 in 10.0 mi WNW 8.1 mph - N/A   Overcast
10:51 PM 61.0 °F - 53.1 °F 75% 29.96 in 10.0 mi WNW 5.8 mph - N/A   Mostly Cloudy
11:51 PM 60.1 °F - 51.1 °F 72% 29.99 in 10.0 mi WNW 6.9 mph - N/A   Mostly Cloudy